TimeCST,TemperatureF,Dew PointF,Humidity,Sea Level PressureIn,VisibilityMPH,Wind Direction,Wind SpeedMPH,Gust SpeedMPH,PrecipitationIn,Events,Conditions,WindDirDegrees,DateUTC
12:56 AM,48.9,41.0,74,30.22,10.0,Calm,Calm,-,N/A,,Overcast,0,2013-11-12 06:56:00
1:56 AM,54.0,38.8,57,30.23,10.0,North,10.4,-,N/A,,Overcast,350,2013-11-12 07:56:00
2:56 AM,52.0,43.9,74,30.26,10.0,NNW,18.4,24.2,N/A,,Mostly Cloudy,340,2013-11-12 08:56:00
3:18 AM,51.8,44.6,76,30.25,9.0,North,15.0,-,N/A,,Overcast,350,2013-11-12 09:18:00
3:56 AM,48.9,43.0,80,30.30,10.0,North,24.2,28.8,N/A,,Overcast,10,2013-11-12 09:56:00
4:38 AM,46.4,44.6,93,30.30,10.0,North,19.6,25.3,0.00,Rain,Light Rain,350,2013-11-12 10:38:00
4:56 AM,43.9,41.0,90,30.34,10.0,North,19.6,25.3,0.00,,Overcast,360,2013-11-12 10:56:00
5:16 AM,42.8,37.4,81,30.34,10.0,North,20.7,28.8,N/A,,Overcast,10,2013-11-12 11:16:00
5:48 AM,41.0,37.4,87,30.36,5.0,North,23.0,28.8,0.00,Rain,Light Rain,10,2013-11-12 11:48:00
5:56 AM,39.9,37.9,93,30.40,5.0,North,21.9,28.8,0.00,Rain,Light Rain,10,2013-11-12 11:56:00
6:56 AM,37.9,36.0,93,30.46,4.0,North,19.6,27.6,0.00,Rain,Light Rain,360,2013-11-12 12:56:00
7:56 AM,34.9,32.0,89,30.51,10.0,North,19.6,25.3,0.00,Snow,Light Snow,10,2013-11-12 13:56:00
8:35 AM,35.6,30.2,81,30.49,10.0,North,19.6,28.8,0.00,Snow,Light Snow,10,2013-11-12 14:35:00
8:56 AM,34.9,28.0,76,30.54,10.0,NNE,15.0,27.6,0.00,Snow,Light Snow,20,2013-11-12 14:56:00
9:56 AM,36.9,24.1,60,30.56,10.0,North,23.0,28.8,0.00,,Mostly Cloudy,360,2013-11-12 15:56:00
10:56 AM,38.8,22.1,51,30.57,10.0,NNE,24.2,29.9,N/A,,Partly Cloudy,20,2013-11-12 16:56:00
11:56 AM,41.0,22.1,47,30.55,10.0,North,18.4,24.2,N/A,,Partly Cloudy,10,2013-11-12 17:56:00
12:56 PM,41.9,18.1,38,30.55,10.0,NNE,21.9,28.8,N/A,,Clear,20,2013-11-12 18:56:00
1:56 PM,43.9,17.1,34,30.56,10.0,North,15.0,25.3,N/A,,Clear,10,2013-11-12 19:56:00
2:56 PM,43.0,13.1,30,30.57,10.0,North,16.1,24.2,N/A,,Clear,10,2013-11-12 20:56:00
3:56 PM,41.0,13.1,32,30.58,10.0,North,17.3,24.2,N/A,,Clear,10,2013-11-12 21:56:00
4:56 PM,37.9,13.1,36,30.60,10.0,North,17.3,-,N/A,,Clear,360,2013-11-12 22:56:00
5:56 PM,36.9,14.0,39,30.63,10.0,North,12.7,-,N/A,,Clear,10,2013-11-12 23:56:00
6:56 PM,36.0,15.1,43,30.64,10.0,NNE,10.4,-,N/A,,Clear,30,2013-11-13 00:56:00
7:56 PM,34.9,14.0,42,30.65,10.0,NNE,10.4,-,N/A,,Clear,30,2013-11-13 01:56:00
8:56 PM,32.0,15.1,50,30.68,10.0,North,9.2,-,N/A,,Clear,10,2013-11-13 02:56:00
9:56 PM,32.9,16.2,50,30.68,10.0,NNE,11.5,-,N/A,,Clear,30,2013-11-13 03:56:00
10:56 PM,30.0,16.2,56,30.68,10.0,North,6.9,-,N/A,,Clear,10,2013-11-13 04:56:00
11:56 PM,30.0,19.0,64,30.67,10.0,NNE,6.9,-,N/A,,Clear,20,2013-11-13 05:56:00